Regional Weather Roundup
Issued by NWS Green Bay, WI

Home | Current Version | Previous Version | Graphics & Text | Print | Product List | Glossary Off
Versions: 1 2 3 4 5 6 7 8 9 10 11 12 13 14 15 16 17 18 19 20 21 22 23 24 25 26 27 28 29 30 31 32 33 34 35 36 37 38 39 40 41 42 43 44 45 46 47 48 49 50

000
ASUS43 KGRB 040311
RWRGRB

NORTH-CENTRAL AND NORTHEAST WISCONSIN REGIONAL WEATHER ROUNDUP
NATIONAL WEATHER SERVICE GREEN BAY WI
1000 PM CDT THU SEP 03 2015

WIZ005-009-010>012-018-019-040400-
NORTH CENTRAL WISCONSIN

CITY           SKY/WX    TMP DP  RH WIND       PRES   REMARKS
IRONWOOD       CLEAR     63  61  94 E3        29.97S
MANITOWISH WTR MOCLDY    60  60 100 CALM      30.02R FOG
ARBOR VITAE    CLEAR     66  64  93 CALM      30.02S
EAGLE RIVER    CLOUDY    62  62 100 CALM      30.03R FOG
LAND O LAKES   FOG       61  61  99 CALM      30.04R VSB 3/4
RHINELANDER    CLEAR     62  58  86 CALM      30.03R
PHILLIPS       CLEAR     65  64  96 CALM      30.00R
ANTIGO         CLEAR     63  62  96 NE3       30.02R
TOMAHAWK       CLEAR     60  58  96 CALM      30.02R FOG
MERRILL        FOG       60  60 100 CALM      30.01R VSB 1/2
$$

WIZ013-073-040400-
NORTHEAST WISCONSIN

CITY           SKY/WX    TMP DP  RH WIND       PRES   REMARKS
IRON MOUNTAIN  CLEAR     66  60  81 CALM      30.00R
MARINETTE      CLEAR     66  61  82 N3        29.96S
OCONTO         CLEAR     62  62 100 CALM      29.97R
$$

WIZ017-030-035>037-045-040400-
CENTRAL WISCONSIN

CITY           SKY/WX    TMP DP  RH WIND       PRES   REMARKS
MEDFORD        CLEAR     65  64  97 E3        30.00S
WAUSAU         CLEAR     66  64  93 CALM      29.98R
MOSINEE        CLEAR     64  64 100 E3        30.01R
MARSHFIELD     CLEAR     67  63  87 E3        29.99R
WISC RAPIDS    CLEAR     65  63  93 CALM      29.99R
STEVENS POINT  CLEAR     64  63  98 CALM      29.99S
WAUPACA        CLEAR     66  65  98 CALM      29.98S
SHAWANO        NOT AVBL
CLINTONVILLE   FOG       63  63 100 CALM      29.98S VSB 1/2
WAUTOMA        CLEAR     64  64 100 CALM      29.98S
$$

WIZ038-039-048-051-040400-
FOX VALLEY

CITY           SKY/WX    TMP DP  RH WIND       PRES   REMARKS
NWS GREEN BAY  CLEAR     65  63  93 N5        29.97R
APPLETON       MOCLDY    66  64  94 CALM      29.97R
OSHKOSH        CLEAR     67  64  90 N5        29.96S
FOND DU LAC    CLEAR     65  64  97 NW3       29.97R
$$

WIZ022-050-052-040400-
EAST CENTRAL WISCONSIN

CITY           SKY/WX    TMP DP  RH WIND       PRES   REMARKS
EPHRAIM        FAIR      66  64  90 NE6       29.96S
STURGEON BAY   CLEAR     64  61  88 N3        29.99S
MANITOWOC      CLEAR     64  63  96 MISG      29.97R
SHEBOYGAN      CLEAR     65  64  97 N8        29.96S
$$

LMZ563-521-522-541>543-040400-
LAKESHORE

STATION/POSITION TIME  TEMP    WIND        PRES    VSBY  WAVE
                       AIR SEA DIR/SP/G                  HT/PER
                 (UTC) (F)     (DEG/KT/KT) (MB)    (MI)  (FT/S)
SHEBOYGAN LKSHOR 0300   64     350/ 11/ 12 1014.4F
KEWAUNEE LKSHORE 0200   66     350/  4/  6 1013.4R
ALGOMA MARINA    0244          330/  8/  9   N/A
NORTHPORT PIER   0200   69      50/  7/ 10 1014.6R
N MID LAKE BUOY  0250   68 66   60/ 12/ 14 1014.2R         2/ 3
SISTER BAY LKSHO 0211   69        CALM       N/A
CHAMBERS ISLAND  0200   66      10/  4/  6 1014.6R
MENOMINEE LKSHOR 0200   66     340/  7/  7 1013.5R
$$


USA.gov is the U.S. government's official web portal to all federal, state and local government web resources and services.